GSAT-18

Last updated on Oct. 23, 2020, 5:56 a.m. UTC

1 41793U 16060A   20296.78382705 -.00000092  00000-0  00000-0 0  9998
2 41793   0.1199  95.3718 0001897  58.4945 233.9997  1.00272279 14848
UTC
Height (km)
Latitude
Longitude
Inclination
Orbital Period
UTC large
Height (km)
Speed (km/s)
/
Latitude / Longitude
Inclination (degrees)
Orbital Period (minutes)
Azimuth
Elevation
Range (km)
Doppler Factor
iOS Compass Heading
iOS Angle

Next 30 passes for location: Hong Kong

Rise time Rise Azimuth (degrees) Set time Set Azimuth (degrees) Duration Max altitude (degrees)

No matching passes for this satellites